| time (UTC) | temp C | wind direction | speed KPH | gust KPH | rain 1hr cm | rain 24hr cm | rain mn cm | humidity % | barometer mb |
| 20260506163008 | 15 | 360 | 0.0 | 0.0 | 0.00 | 0.00 | 0.23 | 83 | 1010.1 |
| 20260506161555 | 15 | 173 | 0.0 | 0.0 | 0.00 | 0.00 | 0.23 | 79 | 1010.2 |
| 20260506160047 | 16 | 360 | 0.0 | 0.0 | 0.00 | 0.00 | 0.08 | 73 | 1010.3 |
| 20260506154547 | 16 | 181 | 0.0 | 0.0 | 0.00 | 0.00 | 0.00 | 70 | 1010.0 |
| 20260506153040 | 16 | 201 | 0.0 | 0.0 | 0.00 | 0.00 | 0.00 | 69 | 1009.4 |
| 20260506151537 | 17 | 207 | 0.0 | 0.0 | 0.00 | 0.00 | 0.00 | 67 | 1009.1 |
| 20260506150036 | 17 | 219 | 0.0 | 0.0 | 0.00 | 0.00 | 0.51 | 67 | 1009.1 |
| 20260506144549 | 18 | 360 | 0.0 | 0.0 | 0.00 | 0.00 | 0.51 | 65 | 1009.2 |
| 20260506143034 | 18 | 360 | 0.0 | 0.0 | 0.00 | 0.00 | 0.51 | 62 | 1009.2 |
| 20260506141531 | 18 | 279 | 0.0 | 0.0 | 0.00 | 0.00 | 0.51 | 63 | 1009.2 |
| 20260506140023 | 18 | 266 | 0.0 | 0.0 | 0.00 | 0.00 | 0.51 | 62 | 1009.4 |
| 20260506134522 | 18 | 234 | 0.0 | 0.0 | 0.00 | 0.00 | 0.51 | 62 | 1009.6 |
| 20260506133020 | 18 | 360 | 0.0 | 0.0 | 0.00 | 0.00 | 0.51 | 61 | 1009.7 |
| 20260506131524 | 18 | 242 | 0.0 | 0.0 | 0.00 | 0.00 | 0.51 | 62 | 1009.7 |
| 20260506130019 | 18 | 360 | 0.0 | 0.0 | 0.00 | 0.00 | 0.51 | 65 | 1009.8 |
| 20260506124516 | 17 | 220 | 0.0 | 0.0 | 0.00 | 0.00 | 0.51 | 68 | 1010.0 |
| 20260506123016 | 17 | 360 | 0.0 | 0.0 | 0.00 | 0.00 | 0.51 | 71 | 1010.2 |
| 20260506121506 | 17 | 360 | 0.0 | 0.0 | 0.00 | 0.00 | 0.51 | 71 | 1010.2 |
| 20260506120015 | 17 | 360 | 0.0 | 0.0 | 0.00 | 0.00 | 0.51 | 69 | 1010.3 |
| 20260506114506 | 17 | 360 | 0.0 | 0.0 | 0.00 | 0.00 | 0.51 | 60 | 1010.2 |
| 20260506113004 | 17 | 360 | 0.0 | 0.0 | 0.00 | 0.00 | 0.51 | 66 | 1010.2 |
| 20260506111504 | 17 | 360 | 0.0 | 0.0 | 0.00 | 0.00 | 0.51 | 70 | 1010.3 |
| 20260506110002 | 17 | 360 | 0.0 | 0.0 | 0.00 | 0.00 | 0.51 | 65 | 1010.3 |
| 20260506104501 | 18 | 360 | 0.0 | 0.0 | 0.00 | 0.00 | 0.51 | 64 | 1010.4 |
| 20260506103059 | 17 | 360 | 0.0 | 0.0 | 0.00 | 0.00 | 0.51 | 68 | 1010.4 |
| 20260506101546 | 17 | 360 | 0.0 | 0.0 | 0.00 | 0.00 | 0.51 | 68 | 1010.6 |
| 20260506100045 | 17 | 360 | 0.0 | 0.0 | 0.00 | 0.00 | 0.51 | 68 | 1010.7 |
| 20260506094548 | 17 | 360 | 0.0 | 0.0 | 0.00 | 0.00 | 0.51 | 71 | 1010.8 |
| 20260506093044 | 16 | 360 | 0.0 | 0.0 | 0.00 | 0.00 | 0.51 | 71 | 1010.8 |
| 20260506091542 | 16 | 360 | 0.0 | 0.0 | 0.00 | 0.00 | 0.51 | 71 | 1010.6 |
| 20260506090040 | 16 | 64 | 0.0 | 0.0 | 0.00 | 0.00 | 0.51 | 73 | 1010.4 |
| 20260506084538 | 16 | 65 | 0.0 | 0.0 | 0.00 | 0.00 | 0.51 | 73 | 1010.4 |
| 20260506083038 | 16 | 66 | 0.0 | 0.0 | 0.00 | 0.00 | 0.51 | 74 | 1010.3 |
| 20260506081524 | 15 | 66 | 0.0 | 0.0 | 0.00 | 0.00 | 0.51 | 79 | 1010.2 |
| 20260506073023 | 14 | 360 | 0.0 | 0.0 | 0.00 | 0.00 | 0.51 | 87 | 1010.2 |
| 20260506071522 | 13 | 360 | 0.0 | 0.0 | 0.00 | 0.00 | 0.51 | 88 | 1010.1 |
| 20260506061507 | 12 | 360 | 0.0 | 0.0 | 0.00 | 0.00 | 0.51 | 87 | 1010.0 |
| 20260506044502 | 11 | 360 | 0.0 | 0.0 | 0.00 | 0.00 | 0.51 | 87 | 1009.0 |
| 20260506043003 | 10 | 360 | 0.0 | 0.0 | 0.00 | 0.00 | 0.51 | 87 | 1008.8 |
| 20260506041555 | 10 | 360 | 0.0 | 0.0 | 0.00 | 0.00 | 0.51 | 87 | 1008.7 |
| 20260506040051 | 10 | 360 | 0.0 | 0.0 | 0.00 | 0.00 | 0.51 | 87 | 1008.8 |
| 20260506034553 | 10 | 360 | 0.0 | 0.0 | 0.00 | 0.00 | 0.51 | 87 | 1008.8 |
| 20260506033101 | 10 | 360 | 0.0 | 0.0 | 0.00 | 0.00 | 0.51 | 87 | 1008.8 |
| 20260506031552 | 10 | 360 | 0.0 | 0.0 | 0.00 | 0.00 | 0.51 | 87 | 1008.7 |
| 20260506030058 | 10 | 360 | 0.0 | 0.0 | 0.00 | 0.00 | 0.51 | 86 | 1008.7 |
| 20260506024602 | 10 | 360 | 0.0 | 0.0 | 0.00 | 0.00 | 0.51 | 86 | 1008.6 |
| 20260506023047 | 10 | 360 | 0.0 | 0.0 | 0.00 | 0.00 | 0.51 | 86 | 1008.5 |
| 20260506021541 | 10 | 360 | 0.0 | 0.0 | 0.00 | 0.00 | 0.51 | 85 | 1008.5 |
| 20260506020031 | 11 | 360 | 0.0 | 0.0 | 0.00 | 0.00 | 0.51 | 86 | 1008.4 |
| 20260506014531 | 11 | 360 | 0.0 | 0.0 | 0.00 | 0.00 | 0.51 | 86 | 1008.4 |
| 20260506013034 | 11 | 360 | 0.0 | 0.0 | 0.00 | 0.00 | 0.51 | 86 | 1008.5 |
| 20260506011553 | 11 | 360 | 0.0 | 0.0 | 0.00 | 0.00 | 0.51 | 86 | 1008.3 |
| 20260506010030 | 11 | 360 | 0.0 | 0.0 | 0.00 | 0.00 | 0.51 | 86 | 1008.5 |
| 20260506004540 | 11 | 360 | 0.0 | 0.0 | 0.00 | 0.00 | 0.51 | 86 | 1008.6 |
| 20260506003031 | 11 | 360 | 0.0 | 0.0 | 0.00 | 0.00 | 0.51 | 86 | 1008.6 |
| 20260506001530 | 11 | 360 | 0.0 | 0.0 | 0.00 | 0.00 | 0.51 | 85 | 1008.7 |
| 20260506000009 | 11 | 360 | 0.0 | 0.0 | 0.00 | 0.00 | 0.51 | 85 | 1008.8 |
| 20260505234509 | 11 | 360 | 0.0 | 0.0 | 0.00 | 0.00 | 0.51 | 85 | 1009.0 |
| 20260505233048 | 12 | 360 | 0.0 | 0.0 | 0.00 | 0.00 | 0.51 | 83 | 1009.3 |
| 20260505231548 | 12 | 360 | 0.0 | 0.0 | 0.00 | 0.00 | 0.51 | 82 | 1009.4 |
| 20260505230036 | 12 | 360 | 0.0 | 0.0 | 0.00 | 0.00 | 0.51 | 81 | 1009.1 |
| 20260505224536 | 13 | 360 | 0.0 | 0.0 | 0.00 | 0.00 | 0.51 | 79 | 1009.3 |
| 20260505223035 | 13 | 360 | 0.0 | 0.0 | 0.00 | 0.00 | 0.51 | 80 | 1009.2 |
| 20260505221535 | 12 | 360 | 0.0 | 0.0 | 0.00 | 0.00 | 0.51 | 81 | 1009.4 |
| 20260505220051 | 13 | 360 | 0.0 | 0.0 | 0.00 | 0.00 | 0.51 | 81 | 1009.5 |
| 20260505214534 | 13 | 49 | 0.0 | 0.0 | 0.00 | 0.00 | 0.51 | 81 | 1009.7 |
| 20260505213038 | 12 | 360 | 0.0 | 0.0 | 0.00 | 0.00 | 0.51 | 83 | 1009.7 |
| 20260505211538 | 12 | 50 | 0.0 | 0.0 | 0.00 | 0.00 | 0.51 | 84 | 1009.7 |
| 20260505210018 | 12 | 56 | 0.0 | 0.0 | 0.00 | 0.00 | 0.51 | 85 | 1009.5 |
| 20260505204519 | 12 | 150 | 0.0 | 0.0 | 0.00 | 0.00 | 0.51 | 86 | 1009.3 |
| 20260505203015 | 12 | 360 | 0.0 | 0.0 | 0.00 | 0.00 | 0.51 | 86 | 1009.3 |
| 20260505201517 | 12 | 360 | 6.4 | 0.0 | 0.00 | 0.00 | 0.51 | 86 | 1009.2 |
| 20260505200013 | 12 | 360 | 6.4 | 0.0 | 0.00 | 0.00 | 0.51 | 85 | 1009.1 |
| 20260505194518 | 12 | 360 | 3.2 | 0.0 | 0.00 | 0.00 | 0.51 | 84 | 1009.2 |
| 20260505193006 | 13 | 360 | 6.4 | 0.0 | 0.00 | 0.00 | 0.30 | 81 | 1009.3 |
| 20260505191504 | 13 | 360 | 3.2 | 0.0 | 0.00 | 0.00 | 0.13 | 82 | 1009.2 |
| 20260505190047 | 16 | 169 | 3.2 | 0.0 | 0.00 | 0.00 | 0.13 | 84 | 1008.6 |
| 20260505184551 | 16 | 204 | 1.6 | 0.0 | 0.00 | 0.00 | 0.10 | 83 | 1008.2 |
| 20260505183050 | 16 | 205 | 3.2 | 0.0 | 0.00 | 0.00 | 0.10 | 82 | 1008.0 |
| 20260505181544 | 16 | 200 | 0.0 | 0.0 | 0.00 | 0.00 | 0.10 | 82 | 1008.1 |
| 20260505180042 | 16 | 200 | 0.0 | 0.0 | 0.00 | 0.00 | 0.10 | 82 | 1008.2 |
| 20260505174543 | 16 | 200 | 0.0 | 0.0 | 0.00 | 0.00 | 0.10 | 82 | 1008.0 |
| 20260505173042 | 16 | 200 | 4.8 | 0.0 | 0.00 | 0.00 | 0.10 | 82 | 1007.7 |
| 20260505171544 | 16 | 216 | 3.2 | 0.0 | 0.00 | 0.00 | 0.10 | 82 | 1007.6 |
| 20260505170031 | 16 | 209 | 3.2 | 0.0 | 0.00 | 0.00 | 0.10 | 83 | 1007.6 |
| 20260505164541 | 16 | 215 | 4.8 | 0.0 | 0.00 | 0.00 | 0.10 | 82 | 1007.6 |